Coeur d'Alene, ID

6:02 AM PDT on August 23, 2017 (GMT -0700)
Coeur D'Alene

Weather History for KCOE - November, 2012

Change the Weather History Date:

Tuesday, November 27, 2012

  Actual Average Record
Temperature  
Mean Temperature 32 °F -  
Max Temperature 35 °F 36 °F 55 °F (2014)
Min Temperature 28 °F 27 °F 12 °F (2003)
Degree Days  
Heating Degree Days 34    
Moisture  
Dew Point 26 °F    
Average Humidity 81    
Maximum Humidity 86    
Minimum Humidity 70    
Precipitation  
Precipitation 0.00 in - - ()
Sea Level Pressure  
Sea Level Pressure 30.16 in    
Wind  
Wind Speed 10 mph (NE)    
Max Wind Speed 15 mph    
Max Gust Speed -    
Visibility 10 miles    
Events      
Averages and records for this station are not official NWS values.
T = Trace of Precipitation, MM = Missing Value Source: NWS Daily Summary

Daily Weather History Graph

Daily Weather History Graph

Search for Another Location

Airport or City:

Trip Planner

Search our weather history database for the weather conditions in past years. The results will help you decide how hot, cold, wet, or windy it might be!

Date:

Astronomy

Nov. 27, 2012 Rise Set
Actual Time 7:10 AM PST 3:59 PM PST
Civil Twilight 6:35 AM PST 4:34 PM PST
Nautical Twilight 5:57 AM PST 5:12 PM PST
Astronomical Twilight 5:20 AM PST 5:49 PM PST
Moon 3:34 PM PST (11/27) 6:18 AM PST (11/27)
Length of Visible Light 9h 58m
Length of Day
8h 48m
Waxing Gibbous, 99% of the Moon is Illuminated
Nov 27
Waxing Gibbous
Nov 28
Full
Dec 6
Last Quarter
Dec 13
New
Dec 19
First Quarter

Hourly Weather History & Observations

Time (PST) Temp. Windchill Dew Point Humidity Pressure Visibility Wind Dir Wind Speed Gust Speed Precip Events Conditions
12:15 AM 28.4 °F 19.7 °F 24.8 °F 86% 30.19 in 10.0 mi ENE 9.2 mph - N/A   Overcast
12:35 AM 28.4 °F 19.1 °F 24.8 °F 86% 30.19 in 10.0 mi ENE 10.4 mph - N/A   Overcast
12:55 AM 28.4 °F 19.7 °F 24.8 °F 86% 30.19 in 10.0 mi NE 9.2 mph - N/A   Overcast
1:15 AM 28.4 °F 20.4 °F 24.8 °F 86% 30.20 in 10.0 mi NE 8.1 mph - N/A   Overcast
1:35 AM 28.4 °F 20.4 °F 24.8 °F 86% 30.19 in 10.0 mi ENE 8.1 mph - N/A   Overcast
1:55 AM 28.4 °F 19.7 °F 24.8 °F 86% 30.19 in 10.0 mi ENE 9.2 mph - N/A   Overcast
2:15 AM 30.2 °F 21.3 °F 24.8 °F 80% 30.19 in 10.0 mi NE 10.4 mph - N/A   Overcast
2:35 AM 30.2 °F 21.9 °F 24.8 °F 80% 30.19 in 10.0 mi NE 9.2 mph - N/A   Overcast
2:55 AM 30.2 °F 21.3 °F 26.6 °F 86% 30.19 in 10.0 mi NE 10.4 mph - N/A   Overcast
3:15 AM 30.2 °F 21.3 °F 24.8 °F 80% 30.19 in 10.0 mi NE 10.4 mph - N/A   Overcast
3:35 AM 30.2 °F 21.9 °F 24.8 °F 80% 30.19 in 10.0 mi NE 9.2 mph - N/A   Overcast
4:35 AM 30.2 °F 21.3 °F 24.8 °F 80% 30.19 in 10.0 mi ENE 10.4 mph - N/A   Overcast
4:55 AM 30.2 °F 20.8 °F 24.8 °F 80% 30.19 in 10.0 mi NE 11.5 mph - N/A   Overcast
5:15 AM 30.2 °F 21.3 °F 26.6 °F 86% 30.19 in 10.0 mi ENE 10.4 mph - N/A   Overcast
5:35 AM 30.2 °F 22.6 °F 24.8 °F 80% 30.19 in 10.0 mi ENE 8.1 mph - N/A   Overcast
5:55 AM 30.2 °F 22.6 °F 24.8 °F 80% 30.19 in 10.0 mi NE 8.1 mph - N/A   Overcast
6:15 AM 30.2 °F 21.9 °F 26.6 °F 86% 30.19 in 10.0 mi NE 9.2 mph - N/A   Overcast
6:35 AM 30.2 °F 21.9 °F 24.8 °F 80% 30.20 in 10.0 mi NE 9.2 mph - N/A   Overcast
6:55 AM 30.2 °F 20.8 °F 24.8 °F 80% 30.19 in 10.0 mi NE 11.5 mph - N/A   Overcast
7:15 AM 30.2 °F 20.8 °F 24.8 °F 80% 30.20 in 10.0 mi NE 11.5 mph - N/A   Overcast
7:35 AM 30.2 °F 21.3 °F 24.8 °F 80% 30.20 in 10.0 mi NE 10.4 mph - N/A   Overcast
7:55 AM 30.2 °F 20.8 °F 26.6 °F 86% 30.21 in 10.0 mi NE 11.5 mph - N/A   Overcast
8:15 AM 30.2 °F 20.8 °F 24.8 °F 80% 30.21 in 10.0 mi NE 11.5 mph - N/A   Overcast
8:35 AM 30.2 °F 20.8 °F 26.6 °F 86% 30.21 in 10.0 mi NE 11.5 mph - N/A   Overcast
8:55 AM 32.0 °F 23.0 °F 24.8 °F 75% 30.21 in 10.0 mi NE 11.5 mph - N/A   Overcast
9:15 AM 32.0 °F 22.5 °F 26.6 °F 80% 30.21 in 10.0 mi NNE 12.7 mph - N/A   Overcast
9:35 AM 33.8 °F 24.8 °F 26.6 °F 75% 30.21 in 10.0 mi NNE 12.7 mph - N/A   Overcast
9:55 AM 33.8 °F 24.8 °F 26.6 °F 75% 30.21 in 10.0 mi NNE 12.7 mph - N/A   Overcast
10:15 AM 33.8 °F 23.9 °F 26.6 °F 75% 30.21 in 10.0 mi NNE 15.0 mph - N/A   Overcast
2:15 PM 35.6 °F 27.1 °F 28.4 °F 75% 30.15 in 10.0 mi NNE 12.7 mph - N/A   Clear
2:35 PM 35.6 °F 26.6 °F 28.4 °F 75% 30.15 in 10.0 mi NNE 13.8 mph - N/A   Clear
2:55 PM 35.6 °F 26.2 °F 26.6 °F 70% 30.15 in 10.0 mi NNE 15.0 mph - N/A   Clear
3:15 PM 35.6 °F 26.2 °F 26.6 °F 70% 30.15 in 10.0 mi NNE 15.0 mph - N/A   Clear
4:15 PM 33.8 °F 25.8 °F 26.6 °F 75% 30.13 in 10.0 mi NE 10.4 mph - N/A   Unknown
4:35 PM 33.8 °F 25.8 °F 26.6 °F 75% 30.13 in 10.0 mi NNE 10.4 mph - N/A   Clear
4:55 PM 33.8 °F 26.4 °F 26.6 °F 75% 30.13 in 10.0 mi NE 9.2 mph - N/A   Clear
5:15 PM 32.0 °F 24.8 °F 26.6 °F 80% 30.13 in 10.0 mi NE 8.1 mph - N/A   Clear
5:35 PM 30.2 °F 22.6 °F 24.8 °F 80% 30.12 in 10.0 mi ENE 8.1 mph - N/A   Clear
5:55 PM 32.0 °F 24.2 °F 26.6 °F 80% 30.12 in 10.0 mi NE 9.2 mph - N/A   Clear
6:15 PM 30.2 °F 20.2 °F 24.8 °F 80% 30.12 in 10.0 mi ENE 12.7 mph - N/A   Clear
6:35 PM 30.2 °F 20.2 °F 26.6 °F 86% 30.11 in 10.0 mi NE 12.7 mph - N/A   Clear
6:55 PM 30.2 °F 20.8 °F 24.8 °F 80% 30.11 in 10.0 mi NE 11.5 mph - N/A   Clear
7:15 PM 30.2 °F 21.3 °F 24.8 °F 80% 30.11 in 10.0 mi ENE 10.4 mph - N/A   Clear
7:35 PM 30.2 °F 22.6 °F 24.8 °F 80% 30.11 in 10.0 mi NE 8.1 mph - N/A   Clear
7:55 PM 30.2 °F 22.6 °F 24.8 °F 80% 30.11 in 10.0 mi NE 8.1 mph - N/A   Clear
8:15 PM 30.2 °F 21.9 °F 26.6 °F 86% 30.11 in 10.0 mi ENE 9.2 mph - N/A   Clear
8:35 PM 30.2 °F 21.9 °F 24.8 °F 80% 30.11 in 10.0 mi ENE 9.2 mph - N/A   Clear
8:55 PM 30.2 °F 21.3 °F 24.8 °F 80% 30.11 in 10.0 mi NE 10.4 mph - N/A   Clear
9:15 PM 30.2 °F 21.3 °F 24.8 °F 80% 30.11 in 10.0 mi ENE 10.4 mph - N/A   Clear
9:35 PM 30.2 °F 20.8 °F 26.6 °F 86% 30.11 in 10.0 mi ENE 11.5 mph - N/A   Clear
9:55 PM 30.2 °F 20.8 °F 24.8 °F 80% 30.11 in 10.0 mi ENE 11.5 mph - N/A   Clear
10:15 PM 30.2 °F 20.8 °F 24.8 °F 80% 30.10 in 10.0 mi NE 11.5 mph - N/A   Clear
10:35 PM 30.2 °F 21.3 °F 24.8 °F 80% 30.10 in 10.0 mi ENE 10.4 mph - N/A   Clear
10:55 PM 30.2 °F 20.8 °F 24.8 °F 80% 30.10 in 10.0 mi NE 11.5 mph - N/A   Clear
11:15 PM 28.4 °F 19.1 °F 24.8 °F 86% 30.09 in 10.0 mi ENE 10.4 mph - N/A   Clear
11:35 PM 28.4 °F 19.7 °F 24.8 °F 86% 30.10 in 10.0 mi ENE 9.2 mph - N/A   Clear
11:55 PM 30.2 °F 22.6 °F 24.8 °F 80% 30.10 in 10.0 mi ENE 8.1 mph - N/A   Clear